Location: Newark
(33.6333°S, 78.8500°W)
Time: 12:29:59
(UTC+00:00)

Tiros 1 despin weight - Pass Details

Date: 29 September 2019
Orbit: 594 x 643 km, 48.2° (Epoch: 16 October)

Event Time Altitude Azimuth Distance (km) Brightness Sun altitude
Rises 02:21:21 0° 287° (WNW) 2,842 ? -37.2°
Enters shadow 02:23:01 - 282° (WNW) 2,223 ? -37.5°
Reaches altitude 10° 02:23:46 10° 279° (W) 1,950 - -37.6°
Maximum altitude 02:27:56 37° 210° (SSW) 951 - -38.3°
Drops below altitude 10° 02:32:12 10° 142° (SE) 1,991 - -39.0°
Sets 02:34:41 0° 133° (SE) 2,910 - -39.4°
